Weather History for KSJT - December, 2012

Change the Weather History Date:

Sunday, December 2, 2012

  Actual Average Record
Temperature  
Mean Temperature 71 °F 49 °F  
Max Temperature 81 °F 62 °F 83 °F (1995)
Min Temperature 61 °F 36 °F 20 °F (1979)
Degree Days  
Heating Degree Days 0 16  
Month to date heating degree days 0 32  
Since 1 July heating degree days 305 432  
Cooling Degree Days 6 0  
Month to date cooling degree days 13 0  
Year to date cooling degree days 3239 2502  
Growing Degree Days 22 (Base 50)    
Moisture  
Dew Point 59 °F    
Average Humidity 69    
Maximum Humidity 93    
Minimum Humidity 45    
Precipitation  
Precipitation 0.00 in 0.03 in 2.20 in (1924)
Month to date precipitation 0.00 0.05  
Year to date precipitation 21.78 20.45  
Snow  
Snow 0.00 in 0.00 in 0.00 in (2002)
Month to date snowfall 0.0 0.0  
Since 1 July snowfall T 0.3  
Snow Depth 0.00 in    
Sea Level Pressure  
Sea Level Pressure 30.02 in    
Wind  
Wind Speed 12 mph (SSW)    
Max Wind Speed 22 mph    
Max Gust Speed 26 mph    
Visibility 10 miles    
Events      
T = Trace of Precipitation, MM = Missing Value Source: NWS Daily Summary

Daily Weather History Graph

Daily Weather History Graph

Search for Another Location

Airport or City:

Trip Planner

Search our weather history database for the weather conditions in past years. The results will help you decide how hot, cold, wet, or windy it might be!

Date:

Astronomy

Dec. 02, 2012 Rise Set
Actual Time 7:24 AM CST 5:38 PM CST
Civil Twilight 6:57 AM CST 6:05 PM CST
Nautical Twilight 6:27 AM CST 6:35 PM CST
Astronomical Twilight 5:58 AM CST 7:04 PM CST
Moon 9:21 PM CST (12/2) 10:20 AM CST (12/2)
Length of Visible Light 11h 07m
Length of Day
10h 14m
Waning Gibbous, 85% of the Moon is Illuminated
Dec 2
Waning Gibbous
Dec 6
Last Quarter
Dec 13
New
Dec 19
First Quarter
Dec 28
Full

Hourly Weather History & Observations

Time (CST) Temp. Heat Index Dew Point Humidity Pressure Visibility Wind Dir Wind Speed Gust Speed Precip Events Conditions
1:51 AM 63.0 °F - 59.0 °F 87% 30.00 in 10.0 mi SSW 8.1 mph - N/A   Clear
3:51 AM 62.1 °F - 57.9 °F 86% 30.00 in 10.0 mi South 9.2 mph - N/A   Clear
5:01 AM 62.6 °F - 60.8 °F 94% 30.05 in 10.0 mi SSW 8.1 mph - N/A   Mostly Cloudy
5:51 AM 64.9 °F - 62.1 °F 90% 30.01 in 10.0 mi SSW 11.5 mph - N/A   Overcast
6:51 AM 66.0 °F - 61.0 °F 84% 30.04 in 10.0 mi SSW 13.8 mph 23.0 mph N/A   Overcast
7:16 AM 66.2 °F - 60.8 °F 83% 30.09 in 10.0 mi SSW 16.1 mph - N/A   Overcast
7:51 AM 66.9 °F - 60.1 °F 79% 30.05 in 10.0 mi SSW 12.7 mph - N/A   Overcast
8:51 AM 69.1 °F - 60.1 °F 73% 30.07 in 10.0 mi SSW 16.1 mph - N/A   Mostly Cloudy
9:19 AM 69.8 °F - 60.8 °F 73% 30.12 in 10.0 mi SSW 19.6 mph 26.5 mph N/A   Scattered Clouds
9:41 AM 69.8 °F - 60.8 °F 73% 30.13 in 10.0 mi SSW 17.3 mph 23.0 mph N/A   Mostly Cloudy
9:51 AM 70.0 °F - 60.1 °F 71% 30.09 in 10.0 mi South 15.0 mph 21.9 mph N/A   Mostly Cloudy
10:21 AM 71.6 °F - 60.8 °F 69% 30.13 in 10.0 mi SSW 15.0 mph - N/A   Scattered Clouds
10:51 AM 73.9 °F - 60.1 °F 62% 30.08 in 10.0 mi SW 13.8 mph - N/A   Partly Cloudy
11:51 AM 75.9 °F - 59.0 °F 56% 30.06 in 10.0 mi South 13.8 mph 21.9 mph N/A   Clear
12:51 PM 79.0 °F - 57.9 °F 48% 30.01 in 10.0 mi South 15.0 mph 21.9 mph N/A   Clear
1:51 PM 80.1 °F 80.6 °F 57.9 °F 47% 29.98 in 10.0 mi South 12.7 mph 20.7 mph N/A   Clear
2:51 PM 80.1 °F 80.4 °F 57.0 °F 45% 29.96 in 10.0 mi SSW 13.8 mph 20.7 mph N/A   Clear
3:51 PM 79.0 °F - 55.9 °F 45% 29.95 in 10.0 mi South 11.5 mph - N/A   Clear
4:51 PM 78.1 °F - 55.9 °F 46% 29.96 in 10.0 mi South 11.5 mph - N/A   Clear
5:51 PM 73.0 °F - 55.9 °F 55% 29.96 in 10.0 mi South 6.9 mph - N/A   Clear
6:51 PM 70.0 °F - 57.0 °F 63% 29.97 in 10.0 mi South 8.1 mph - N/A   Clear
7:51 PM 68.0 °F - 57.9 °F 70% 29.98 in 10.0 mi South 15.0 mph - N/A   Clear
8:51 PM 66.0 °F - 59.0 °F 78% 29.98 in 10.0 mi South 15.0 mph - N/A   Clear
9:51 PM 64.9 °F - 59.0 °F 81% 29.98 in 10.0 mi SSW 10.4 mph - N/A   Clear
10:51 PM 64.9 °F - 59.0 °F 81% 29.97 in 10.0 mi South 17.3 mph 23.0 mph N/A   Clear
11:51 PM 64.9 °F - 59.0 °F 81% 29.96 in 10.0 mi South 12.7 mph - N/A   Clear